Tracking 19199 objects as of 25-Jun-2018
HD Live streaming from Space Station
objects crossing your sky now

OPS 6182 (DMSP 5D-1 F2)

Track OPS 6182 (DMSP 5D-1 F2) now!
10-day predictions
OPS 6182 (DMSP 5D-1 F2) is classified as:


NORAD ID: 10820
Int'l Code: 1978-042A
Perigee: 774.5 km
Apogee: 788.7 km
Inclination: 98.6 °
Period: 100.3 minutes
Semi major axis: 7152 km
RCS: 4.1055 m2 (large)
Launch date: May 1, 1978
Source: United States (US)
Launch site: AIR FORCE WESTERN TEST RANGE (AFWTR)
aabbcc
Your satellite tracking list
Your tracking list is empty




NASA's NSSDC Master Catalog

Two Line Element Set (TLE):
1 10820U 78042A   18176.15422373  .00000056  00000-0  34853-4 0  9990
2 10820  98.5585   6.2953 0009881  22.7604 337.4018 14.35182711 94849
Source of the keplerian elements: AFSPC